QPF
0.00 0.00 0.00 0.00 0.00 0.00 0.00 0.00 0.00 0.00 0.00 0.00 0.00 0.00 0.00 0.00 0.03 0.04 0.06 0.04 0.03 0.00 0.00 0.00 0.00 0.00 0.00 0.00 0.00 0.00 0.00 0.00 0.00 0.00 0.00 0.00 0.00 0.00 0.00 0.00 0.00 0.00 0.00
0.00 0.00 0.00 0.00 0.00 0.00 0.00 0.00 0.00 0.00 0.00 0.00 0.00 0.00 0.00 0.01 0.06 0.08 0.06 0.04 0.10 0.09 0.03 0.01 0.00 0.00 0.00 0.00 0.00 0.00 0.00 0.00 0.00 0.00 0.00 0.00 0.00 0.00 0.00 0.00 0.00 0.00 0.00
0.00 0.00 0.00 0.00 0.00 0.00 0.00 0.00 0.00 0.00 0.00 0.00 0.00 0.00 0.00 0.00 0.01 0.03 0.04 0.04 0.07 0.07 0.04 0.01 0.00 0.00 0.00 0.00 0.00 0.00 0.00 0.00 0.00 0.00 0.00 0.00 0.00 0.00 0.00 0.00 0.00 0.00 0.00
0.00 0.00 0.00 0.00 0.00 0.00 0.00 0.00 0.00 0.00 0.00 0.00 0.00 0.00 0.00 0.00 0.01 0.03 0.02 0.03 0.03 0.02 0.02 0.00 0.00 0.00 0.00 0.00 0.00 0.00 0.00 0.00 0.00 0.00 0.00 0.00 0.00 0.00 0.00 0.00 0.00 0.00 0.00
0.00 0.00 0.00 0.00 0.00 0.00 0.00 0.00 0.00 0.00 0.00 0.00 0.00 0.00 0.00 0.00 0.00 0.01 0.01 0.01 0.01 0.01 0.01 0.01 0.00 0.00 0.00 0.00 0.00 0.00 0.00 0.00 0.00 0.00 0.00 0.00 0.00 0.00 0.00 0.00 0.00 0.00 0.00
0.00 0.00 0.00 0.00 0.00 0.00 0.00 0.00 0.00 0.00 0.00 0.00 0.00 0.00 0.00 0.00 0.00 0.00 0.01 0.02 0.02 0.02 0.01 0.00 0.00 0.00 0.00 0.00 0.00 0.00 0.00 0.00 0.00 0.00 0.00 0.00 0.00 0.00 0.00 0.00 0.00 0.00 0.00
0.00 0.00 0.00 0.00 0.00 0.00 0.00 0.00 0.00 0.00 0.00 0.00 0.00 0.00 0.00 0.00 0.00 0.01 0.01 0.02 0.02 0.01 0.00 0.00 0.00 0.00 0.00 0.00 0.00 0.00 0.00 0.00 0.00 0.00 0.00 0.00 0.00 0.00 0.00 0.00 0.00 0.00 0.00
0.00 0.00 0.00 0.00 0.00 0.00 0.00 0.00 0.00 0.00 0.00 0.00 0.00 0.00 0.00 0.00 0.01 0.01 0.00 0.00 0.00 0.00 0.00 0.00 0.00 0.00 0.00 0.00 0.00 0.00 0.00 0.00 0.00 0.00 0.00 0.00 0.00 0.00 0.00 0.00 0.00 0.00 0.00
0.00 0.00 0.00 0.00 0.00 0.00 0.00 0.00 0.00 0.00 0.00 0.00 0.00 0.00 0.00 0.00 0.00 0.00 0.00 0.00 0.00 0.00 0.00 0.00 0.00 0.00 0.00 0.00 0.00 0.00 0.00 0.00 0.00 0.00 0.00 0.00 0.00 0.00 0.00 0.00 0.00 0.00 0.00
0.00 0.00 0.00 0.00 0.00 0.00 0.00 0.00 0.00 0.00 0.00 0.00 0.00 0.00 0.00 0.00 0.00 0.00 0.00 0.00 0.00 0.00 0.00 0.00 0.00 0.00 0.00 0.00 0.00 0.00 0.00 0.00 0.00 0.00 0.00 0.00 0.00 0.00 0.00 0.00 0.00 0.00 0.00
0.00 0.00 0.00 0.00 0.00 0.00 0.00 0.00 0.00 0.00 0.00 0.00 0.00 0.00 0.00 0.00 0.00 0.00 0.00 0.00 0.00 0.00 0.00 0.00 0.00 0.00 0.00 0.00 0.00 0.00 0.00 0.00 0.00 0.00 0.00 0.00 0.00 0.00 0.00 0.00 0.00 0.00 0.00
0.00 0.00 0.00 0.00 0.00 0.00 0.00 0.00 0.00 0.00 0.00 0.00 0.00 0.00 0.00 0.00 0.00 0.00 0.00 0.00 0.00 0.00 0.00 0.00 0.00 0.00 0.00 0.00 0.00 0.00 0.00 0.00 0.00 0.00 0.00 0.00 0.00 0.00 0.00 0.00 0.00 0.00 0.00
0.00 0.00 0.00 0.00 0.00 0.00 0.00 0.00 0.00 0.00 0.00 0.00 0.00 0.00 0.00 0.00 0.00 0.00 0.00 0.00 0.00 0.00 0.00 0.00 0.00 0.00 0.00 0.00 0.00 0.00 0.00 0.00 0.00 0.00 0.00 0.00 0.00 0.00 0.00 0.00 0.00 0.00 0.00
0.00 0.00 0.00 0.00 0.00 0.00 0.00 0.00 0.00 0.00 0.00 0.00 0.00 0.00 0.00 0.00 0.00 0.00 0.00 0.00 0.00 0.00 0.00 0.00 0.00 0.00 0.00 0.00 0.00 0.00 0.00 0.00 0.00 0.00 0.00 0.00 0.00 0.00 0.00 0.00 0.00 0.00 0.00
0.00 0.00 0.00 0.00 0.00 0.00 0.00 0.00 0.00 0.00 0.00 0.00 0.00 0.00 0.00 0.00 0.00 0.00 0.00 0.00 0.00 0.00 0.00 0.00 0.00 0.00 0.00 0.00 0.00 0.00 0.00 0.00 0.00 0.00 0.00 0.00 0.00 0.00 0.00 0.00 0.00 0.00 0.00
0.00 0.00 0.00 0.00 0.00 0.00 0.00 0.00 0.00 0.00 0.00 0.00 0.00 0.00 0.00 0.00 0.00 0.00 0.00 0.00 0.00 0.00 0.00 0.00 0.00 0.00 0.00 0.00 0.00 0.00 0.00 0.00 0.00 0.00 0.00 0.00 0.00 0.00 0.00 0.00 0.00 0.00 0.01
0.00 0.00 0.00 0.00 0.00 0.00 0.00 0.00 0.00 0.00 0.00 0.00 0.00 0.00 0.00 0.00 0.00 0.00 0.00 0.00 0.00 0.00 0.00 0.00 0.00 0.00 0.00 0.00 0.00 0.00 0.00 0.00 0.00 0.00 0.00 0.00 0.00 0.00 0.00 0.00 0.00 0.00 0.01
0.00 0.00 0.00 0.00 0.00 0.00 0.00 0.00 0.00 0.00 0.00 0.00 0.00 0.00 0.00 0.00 0.00 0.00 0.00 0.00 0.00 0.00 0.00 0.00 0.00 0.00 0.00 0.00 0.00 0.00 0.00 0.00 0.00 0.00 0.00 0.00 0.00 0.00 0.00 0.00 0.00 0.01 0.00
0.01 0.01 0.00 0.00 0.00 0.00 0.00 0.00 0.00 0.00 0.00 0.00 0.00 0.00 0.00 0.00 0.00 0.00 0.00 0.00 0.00 0.00 0.00 0.00 0.00 0.00 0.00 0.00 0.00 0.00 0.00 0.00 0.00 0.00 0.00 0.00 0.00 0.00 0.00 0.00 0.01 0.00 0.00
0.00 0.00 0.00 0.00 0.00 0.00 0.00 0.00 0.00 0.00 0.00 0.00 0.00 0.00 0.00 0.00 0.00 0.00 0.00 0.00 0.00 0.00 0.00 0.00 0.00 0.00 0.00 0.00 0.00 0.00 0.00 0.00 0.00 0.00 0.00 0.00 0.00 0.00 0.00 0.00 0.00 0.00 0.00
0.00 0.00 0.00 0.00 0.00 0.00 0.00 0.00 0.00 0.00 0.00 0.00 0.00 0.00 0.00 0.00 0.00 0.00 0.00 0.00 0.00 0.00 0.00 0.00 0.00 0.00 0.00 0.00 0.00 0.00 0.00 0.00 0.00 0.00 0.00 0.00 0.00 0.00 0.00 0.00 0.00 0.00 0.00
0.00 0.00 0.00 0.00 0.00 0.00 0.00 0.00 0.00 0.00 0.00 0.00 0.00 0.00 0.00 0.00 0.00 0.00 0.00 0.00 0.00 0.00 0.00 0.00 0.00 0.00 0.00 0.00 0.00 0.00 0.00 0.00 0.00 0.00 0.00 0.00 0.00 0.00 0.00 0.00 0.00 0.00 0.00
0.00 0.00 0.00 0.00 0.00 0.00 0.00 0.00 0.00 0.00 0.00 0.00 0.00 0.00 0.00 0.00 0.00 0.00 0.00 0.00 0.00 0.00 0.00 0.00 0.00 0.00 0.00 0.00 0.00 0.00 0.00 0.00 0.00 0.00 0.00 0.00 0.00 0.00 0.00 0.00 0.00 0.00 0.00
0.00 0.00 0.00 0.00 0.00 0.00 0.00 0.00 0.00 0.00 0.00 0.00 0.00 0.00 0.00 0.00 0.00 0.00 0.00 0.00 0.00 0.00 0.00 0.00 0.00 0.00 0.00 0.00 0.00 0.00 0.00 0.00 0.00 0.00 0.00 0.00 0.00 0.00 0.00 0.00 0.00 0.00 0.00
0.00 0.00 0.00 0.00 0.00 0.00 0.00 0.00 0.00 0.00 0.00 0.00 0.00 0.00 0.00 0.00 0.00 0.00 0.00 0.00 0.00 0.00 0.00 0.00 0.00 0.00 0.00 0.00 0.00 0.00 0.00 0.00 0.00 0.00 0.00 0.00 0.00 0.00 0.00 0.00 0.00 0.00 0.00
0.00 0.00 0.00 0.00 0.00 0.00 0.00 0.00 0.00 0.00 0.00 0.00 0.00 0.00 0.00 0.00 0.00 0.00 0.00 0.00 0.00 0.00 0.00 0.00 0.00 0.00 0.00 0.00 0.00 0.00 0.00 0.00 0.00 0.00 0.00 0.00 0.00 0.00 0.00 0.00 0.00 0.00 0.00
MSLP
1002.39 1002.60 1002.79 1003.00 1003.22 1003.55 1003.89 1004.05 1004.39 1005.25 1005.87 1006.21 1006.74 1007.37 1007.89 1009.38 1010.43 1011.00 1011.08 1012.11 1012.76 1013.61 1014.63 1015.16 1015.33 1015.66 1016.06 1016.61 1016.85 1017.16 1017.18 1017.68 1017.66 1017.00 1016.52 1016.50 1016.82 1016.89 1016.92 1017.07 1017.10 1017.19 1017.38
1001.73 1001.77 1001.96 1002.38 1002.62 1002.95 1003.34 1003.60 1003.79 1004.42 1005.14 1005.58 1006.15 1006.73 1007.92 1010.31 1011.44 1012.07 1012.37 1012.77 1013.66 1014.49 1015.37 1015.48 1015.68 1016.34 1016.52 1017.12 1017.23 1017.32 1017.69 1017.89 1018.15 1017.83 1017.23 1016.61 1016.77 1016.70 1016.83 1016.83 1017.05 1017.17 1017.21
1000.84 1001.05 1001.20 1001.45 1001.97 1002.16 1002.58 1003.04 1003.31 1003.71 1004.41 1005.06 1005.90 1007.15 1009.20 1010.91 1012.12 1012.93 1013.35 1014.07 1014.56 1014.94 1015.34 1015.92 1016.45 1016.59 1017.18 1017.54 1017.55 1017.82 1017.96 1018.02 1018.40 1018.45 1018.08 1017.60 1017.28 1017.22 1016.44 1016.82 1017.02 1017.06 1017.08
1000.21 1000.37 1000.31 1000.41 1000.74 1001.34 1001.86 1002.39 1002.72 1003.13 1003.85 1004.76 1005.58 1006.97 1008.40 1010.27 1011.88 1012.93 1013.82 1014.45 1014.85 1015.12 1015.47 1015.94 1016.63 1016.82 1017.34 1017.76 1017.75 1018.15 1018.08 1018.22 1018.51 1018.60 1018.62 1018.82 1018.86 1018.36 1017.47 1016.82 1016.96 1016.84 1017.23
999.54 999.88 1000.18 1000.46 1000.49 1000.63 1001.22 1001.96 1002.41 1002.83 1003.41 1004.41 1005.34 1007.00 1008.47 1010.20 1011.88 1013.14 1013.98 1014.85 1015.08 1015.73 1015.98 1016.39 1017.05 1017.09 1017.27 1017.78 1017.89 1018.39 1018.36 1018.72 1018.76 1018.89 1018.98 1018.91 1018.99 1019.06 1018.93 1017.78 1017.16 1017.24 1017.06
999.40 999.63 999.93 1000.38 1000.66 1001.00 1001.08 1001.43 1002.19 1002.53 1003.08 1004.24 1005.61 1006.77 1007.85 1010.05 1011.58 1013.01 1013.92 1014.83 1015.21 1015.79 1016.18 1016.34 1016.75 1017.52 1017.78 1017.94 1018.33 1018.48 1018.90 1019.16 1019.11 1019.19 1019.24 1019.30 1019.38 1019.20 1019.20 1018.57 1017.94 1017.61 1017.05
999.09 999.33 999.81 1000.17 1000.56 1000.94 1001.33 1001.48 1002.25 1002.65 1003.12 1004.22 1005.21 1006.21 1008.14 1009.97 1011.13 1012.24 1013.44 1014.48 1015.36 1015.82 1016.34 1016.51 1016.82 1017.92 1017.79 1018.24 1018.37 1018.88 1019.28 1019.33 1019.28 1019.39 1019.40 1019.52 1019.64 1019.65 1019.50 1019.17 1018.56 1017.93 1017.28
999.11 999.37 999.64 1000.03 1000.29 1000.57 1001.07 1001.64 1002.35 1002.80 1003.44 1004.07 1004.94 1006.31 1008.35 1009.81 1011.22 1012.14 1013.20 1014.04 1014.83 1015.76 1016.14 1016.45 1017.04 1017.87 1018.05 1018.40 1018.68 1019.08 1019.11 1019.38 1019.41 1019.48 1019.59 1019.71 1019.73 1019.64 1019.51 1019.35 1019.09 1018.07 1017.29
999.15 999.42 999.57 999.86 1000.05 1000.32 1000.88 1001.43 1002.32 1002.94 1003.66 1004.31 1005.29 1006.83 1008.66 1010.21 1011.21 1012.36 1013.26 1014.14 1014.85 1015.71 1016.29 1016.64 1017.23 1018.05 1018.28 1018.44 1018.88 1018.87 1018.92 1019.22 1019.35 1019.45 1019.54 1019.68 1019.59 1019.54 1019.46 1019.37 1019.26 1018.84 1017.57
999.11 999.33 999.65 999.59 999.82 1000.06 1000.33 1001.30 1002.03 1003.00 1004.03 1004.67 1006.12 1007.72 1009.28 1010.63 1011.54 1012.38 1013.18 1014.22 1015.04 1015.87 1016.58 1017.10 1017.66 1018.11 1018.40 1018.59 1018.67 1018.77 1018.98 1019.18 1019.30 1019.51 1019.60 1019.54 1019.49 1019.43 1019.36 1019.23 1019.02 1018.79 1018.22
998.72 998.48 998.92 999.08 999.54 999.80 1000.20 1001.01 1002.03 1003.13 1004.27 1005.44 1006.84 1008.44 1009.92 1010.95 1011.78 1012.56 1013.35 1014.41 1015.15 1016.18 1016.64 1017.28 1017.62 1018.07 1018.42 1018.58 1018.65 1018.78 1019.03 1019.28 1019.35 1019.41 1019.38 1019.40 1019.45 1019.33 1019.17 1018.99 1018.77 1018.49 1018.14
998.79 998.29 998.39 998.39 998.43 999.46 1000.34 1001.08 1002.24 1003.83 1004.78 1005.98 1007.46 1009.15 1010.40 1011.16 1011.90 1012.83 1013.64 1014.39 1015.51 1016.19 1016.72 1017.34 1017.74 1018.20 1018.51 1018.68 1018.79 1018.94 1019.09 1019.21 1019.23 1019.26 1019.31 1019.30 1019.23 1019.14 1018.96 1018.69 1018.40 1018.15 1017.82
999.06 998.15 996.55 996.66 997.39 999.08 1000.83 1001.93 1002.63 1004.33 1005.67 1006.80 1008.06 1009.71 1010.71 1011.33 1012.19 1013.22 1013.91 1014.85 1015.75 1016.35 1017.04 1017.62 1017.98 1018.34 1018.77 1019.00 1019.03 1019.10 1019.08 1019.08 1019.15 1019.20 1019.16 1019.17 1019.09 1018.87 1018.64 1018.51 1018.23 1017.85 1017.29
999.84 998.66 997.04 997.06 998.44 999.94 1001.50 1003.02 1003.68 1005.13 1006.58 1007.80 1008.95 1010.03 1011.04 1011.77 1012.80 1013.56 1014.47 1015.19 1016.11 1016.76 1017.31 1017.88 1018.35 1018.71 1019.01 1019.18 1019.22 1019.14 1019.03 1019.00 1018.95 1018.92 1018.89 1018.83 1018.76 1018.61 1018.48 1018.47 1018.13 1017.58 1017.17
1000.65 999.90 999.49 999.75 1000.42 1001.47 1002.69 1004.01 1004.99 1005.89 1007.54 1008.43 1009.69 1010.73 1011.47 1012.43 1013.46 1014.20 1015.10 1015.67 1016.54 1017.19 1017.66 1018.22 1018.67 1018.94 1019.14 1019.29 1019.48 1019.28 1019.13 1018.99 1018.80 1018.66 1018.51 1018.37 1018.33 1018.40 1018.26 1018.01 1017.69 1017.36 1016.94
1001.78 1001.37 1001.30 1001.62 1002.24 1003.21 1004.69 1005.33 1005.80 1007.05 1008.35 1009.26 1010.41 1011.29 1012.18 1013.16 1014.08 1014.94 1015.73 1016.26 1017.05 1017.61 1018.01 1018.45 1018.79 1018.99 1019.31 1019.71 1019.63 1019.55 1019.36 1019.04 1018.65 1018.34 1018.22 1018.13 1017.98 1017.79 1017.74 1017.49 1017.15 1016.81 1016.23
1002.83 1002.96 1003.14 1003.70 1004.52 1005.24 1005.94 1006.39 1006.68 1007.97 1008.99 1009.93 1011.06 1012.00 1012.90 1013.88 1014.71 1015.51 1016.16 1016.72 1017.37 1017.76 1018.17 1018.62 1018.91 1019.13 1019.35 1019.63 1019.67 1019.65 1019.41 1018.95 1018.49 1018.30 1018.04 1017.83 1017.63 1017.45 1017.20 1016.95 1016.51 1016.20 1015.85
1003.64 1004.13 1004.76 1005.31 1005.82 1006.34 1007.11 1007.12 1007.65 1008.70 1009.60 1010.65 1011.68 1012.73 1013.62 1014.46 1015.30 1015.96 1016.57 1017.22 1017.64 1017.91 1018.27 1018.75 1019.07 1019.17 1019.18 1019.59 1019.73 1019.56 1019.16 1018.67 1018.30 1017.98 1017.71 1017.46 1017.13 1016.90 1016.61 1016.30 1015.94 1015.52 1014.93
1004.53 1005.07 1005.71 1006.38 1006.92 1007.38 1007.63 1007.71 1008.81 1009.66 1010.53 1011.50 1012.47 1013.39 1014.18 1014.95 1015.74 1016.42 1017.04 1017.54 1017.82 1018.16 1018.57 1018.94 1019.02 1019.10 1019.16 1019.43 1019.53 1019.41 1018.99 1018.40 1018.05 1017.66 1017.30 1016.97 1016.66 1016.39 1016.13 1015.73 1015.26 1014.69 1014.02
1005.68 1006.42 1006.95 1007.38 1007.79 1008.35 1008.66 1008.97 1009.82 1010.75 1011.64 1012.44 1013.17 1013.92 1014.71 1015.48 1016.27 1016.83 1017.42 1017.77 1018.14 1018.60 1018.85 1018.89 1018.98 1019.04 1019.13 1019.13 1019.37 1019.28 1018.85 1018.36 1017.85 1017.57 1017.20 1016.76 1016.35 1015.97 1015.77 1015.24 1014.83 1014.20 1013.65
1006.49 1007.16 1007.72 1008.14 1008.57 1009.04 1009.41 1010.16 1010.97 1011.69 1012.68 1013.37 1013.88 1014.64 1015.53 1016.24 1016.78 1017.25 1017.74 1018.16 1018.54 1018.73 1018.73 1018.81 1018.64 1018.71 1018.87 1019.00 1019.02 1019.06 1018.90 1018.40 1017.92 1017.42 1016.81 1016.47 1016.11 1015.77 1015.24 1014.89 1014.55 1014.05 1013.35
1006.89 1007.27 1007.70 1008.31 1008.82 1009.39 1010.06 1011.11 1012.07 1012.90 1013.41 1014.02 1014.96 1015.86 1016.39 1016.77 1017.20 1017.73 1018.19 1018.51 1018.63 1018.67 1018.61 1018.60 1018.61 1018.51 1018.55 1018.66 1018.75 1018.83 1018.63 1018.13 1017.56 1017.03 1016.55 1016.15 1015.68 1015.13 1014.75 1014.53 1014.14 1013.58 1012.99
1007.63 1008.21 1008.47 1009.08 1009.81 1010.37 1010.95 1011.66 1012.79 1013.64 1014.46 1015.15 1015.71 1016.26 1016.79 1017.22 1017.66 1018.01 1018.37 1018.58 1018.71 1018.72 1018.70 1018.75 1018.67 1018.56 1018.58 1018.54 1018.45 1018.36 1018.16 1017.82 1017.29 1016.82 1016.22 1015.66 1015.19 1014.79 1014.48 1014.13 1013.60 1013.08 1012.77
1007.82 1008.40 1008.90 1009.50 1010.26 1011.20 1012.10 1013.05 1013.90 1014.60 1015.02 1015.62 1016.32 1016.88 1017.35 1017.77 1018.19 1018.51 1018.64 1018.68 1018.83 1018.91 1018.96 1018.89 1018.85 1018.79 1018.64 1018.52 1018.45 1018.39 1018.01 1017.56 1017.05 1016.56 1016.05 1015.51 1014.97 1014.47 1014.11 1013.70 1013.30 1012.94 1012.60
1008.45 1009.05 1009.51 1010.33 1011.52 1012.44 1013.24 1013.98 1014.44 1014.93 1015.63 1016.33 1016.89 1017.43 1017.86 1018.13 1018.44 1018.71 1018.83 1018.85 1019.06 1019.43 1019.47 1019.38 1019.39 1019.19 1018.97 1018.80 1018.74 1018.36 1017.87 1017.36 1016.85 1016.27 1015.93 1015.30 1014.77 1014.34 1013.95 1013.58 1013.25 1012.85 1012.46
1009.07 1009.71 1010.53 1011.53 1012.47 1013.17 1013.90 1014.61 1015.09 1015.51 1016.14 1016.77 1017.35 1017.76 1018.10 1018.41 1018.62 1018.81 1018.85 1019.27 1019.45 1019.61 1019.72 1019.77 1019.78 1019.55 1019.26 1018.97 1018.68 1018.24 1017.62 1017.11 1016.69 1016.34 1015.84 1015.25 1014.98 1014.52 1014.11 1013.71 1013.23 1012.85 1012.33
Thickness
5694 5697 5699 5702 5704 5705 5704 5705 5705 5702 5698 5695 5692 5689 5686 5677 5672 5667 5665 5656 5651 5644 5636 5630 5629 5626 5622 5619 5616 5612 5611 5604 5603 5607 5610 5607 5602 5599 5596 5592 5589 5586 5581
5686 5691 5695 5695 5697 5699 5700 5701 5702 5699 5697 5695 5692 5689 5680 5665 5657 5651 5649 5646 5640 5632 5624 5622 5620 5614 5612 5607 5606 5604 5599 5595 5591 5592 5596 5599 5596 5592 5588 5584 5579 5575 5571
5683 5683 5685 5689 5689 5692 5695 5695 5697 5696 5694 5692 5687 5677 5664 5652 5643 5638 5636 5630 5626 5621 5616 5612 5608 5605 5600 5596 5596 5593 5590 5588 5582 5579 5580 5585 5586 5578 5583 5576 5569 5565 5560
5678 5680 5683 5685 5688 5688 5692 5691 5692 5691 5688 5686 5681 5672 5663 5650 5639 5633 5625 5621 5617 5614 5610 5604 5599 5597 5592 5586 5586 5581 5581 5578 5573 5570 5566 5561 5558 5559 5563 5567 5561 5557 5547
5671 5670 5670 5673 5678 5682 5682 5682 5683 5682 5681 5679 5675 5664 5655 5646 5633 5625 5617 5610 5608 5603 5600 5596 5588 5588 5586 5579 5576 5570 5570 5565 5562 5558 5554 5552 5548 5542 5537 5543 5545 5538 5534
5658 5659 5661 5661 5662 5664 5669 5675 5673 5675 5675 5670 5664 5657 5653 5638 5627 5616 5610 5603 5600 5595 5591 5589 5584 5574 5573 5570 5565 5562 5557 5552 5550 5546 5542 5538 5533 5530 5525 5525 5525 5523 5524
5645 5647 5646 5646 5648 5650 5652 5660 5660 5662 5665 5661 5659 5653 5642 5630 5623 5616 5606 5599 5592 5588 5583 5582 5578 5566 5566 5560 5557 5551 5545 5541 5539 5535 5531 5525 5519 5514 5509 5505 5506 5506 5508
5625 5627 5631 5631 5635 5639 5641 5643 5644 5648 5651 5653 5652 5645 5632 5623 5614 5609 5601 5596 5590 5580 5577 5574 5567 5559 5556 5551 5547 5541 5538 5532 5529 5524 5518 5512 5507 5502 5496 5491 5486 5489 5491
5615 5613 5616 5617 5622 5625 5627 5631 5632 5635 5638 5640 5640 5632 5620 5611 5606 5598 5593 5587 5582 5574 5568 5563 5558 5549 5545 5542 5537 5534 5531 5524 5519 5513 5508 5501 5495 5489 5484 5478 5471 5465 5467
5601 5600 5596 5603 5609 5613 5619 5619 5622 5624 5623 5629 5623 5613 5606 5599 5595 5591 5587 5579 5572 5565 5558 5553 5547 5541 5537 5533 5530 5526 5521 5514 5509 5502 5494 5488 5483 5477 5471 5465 5458 5452 5447
5588 5593 5591 5593 5596 5602 5606 5608 5610 5613 5613 5613 5608 5599 5592 5589 5585 5582 5578 5570 5564 5555 5551 5544 5540 5534 5529 5525 5521 5517 5510 5502 5497 5490 5483 5477 5470 5464 5458 5451 5445 5439 5432
5567 5571 5575 5581 5591 5592 5593 5596 5599 5596 5600 5602 5595 5585 5581 5580 5578 5573 5568 5563 5553 5548 5543 5536 5530 5524 5519 5515 5510 5505 5499 5492 5485 5478 5471 5465 5458 5451 5445 5438 5432 5425 5418
5545 5551 5570 5577 5585 5586 5580 5581 5588 5585 5586 5586 5583 5574 5573 5573 5569 5562 5558 5552 5545 5539 5532 5525 5520 5515 5508 5503 5498 5493 5488 5481 5473 5467 5460 5453 5446 5439 5432 5424 5417 5411 5406
5528 5532 5548 5563 5566 5569 5568 5565 5572 5574 5572 5569 5568 5567 5565 5563 5556 5553 5547 5542 5534 5528 5522 5515 5508 5503 5497 5491 5487 5482 5477 5470 5463 5457 5450 5442 5435 5427 5419 5409 5402 5396 5387
5523 5524 5532 5541 5546 5552 5554 5555 5558 5564 5559 5561 5558 5557 5555 5551 5545 5541 5535 5531 5523 5517 5512 5504 5497 5492 5487 5481 5474 5470 5465 5459 5453 5446 5440 5433 5424 5414 5406 5398 5389 5378 5367
5521 5525 5529 5533 5536 5538 5534 5542 5550 5551 5550 5551 5549 5547 5545 5541 5535 5529 5523 5519 5512 5506 5500 5494 5488 5483 5476 5466 5462 5456 5452 5447 5442 5436 5429 5420 5412 5404 5394 5384 5374 5360 5347
5520 5520 5522 5520 5519 5521 5527 5535 5546 5545 5544 5543 5540 5539 5536 5529 5524 5519 5514 5509 5502 5497 5491 5484 5478 5472 5465 5456 5451 5445 5439 5435 5430 5422 5416 5409 5400 5391 5381 5371 5359 5346 5329
5522 5518 5514 5514 5517 5521 5524 5535 5541 5540 5540 5537 5534 5530 5524 5519 5513 5509 5503 5497 5492 5488 5482 5474 5466 5460 5456 5446 5439 5433 5429 5425 5419 5413 5406 5398 5391 5379 5368 5357 5345 5330 5315
5529 5524 5520 5519 5520 5522 5529 5537 5535 5534 5533 5529 5525 5519 5514 5510 5504 5498 5492 5486 5483 5478 5470 5462 5456 5451 5446 5437 5429 5423 5419 5416 5409 5403 5395 5387 5378 5366 5355 5341 5326 5314 5300
5524 5521 5520 5519 5521 5523 5526 5528 5528 5524 5521 5518 5514 5510 5504 5499 5493 5487 5482 5478 5472 5464 5457 5452 5447 5441 5435 5429 5420 5412 5407 5404 5400 5391 5381 5371 5360 5348 5333 5320 5307 5298 5291
5524 5521 5517 5517 5513 5516 5520 5519 5519 5514 5509 5507 5504 5500 5493 5487 5482 5478 5473 5466 5459 5454 5450 5444 5441 5435 5427 5418 5410 5402 5395 5391 5385 5376 5368 5356 5343 5328 5316 5302 5292 5287 5287
5526 5526 5525 5525 5525 5523 5520 5514 5509 5503 5501 5498 5491 5484 5480 5478 5474 5468 5461 5455 5450 5446 5442 5437 5431 5426 5418 5410 5402 5392 5385 5379 5373 5364 5354 5341 5328 5315 5301 5291 5286 5284 5282
5523 5520 5521 5519 5517 5516 5515 5509 5502 5495 5488 5483 5480 5476 5473 5469 5464 5459 5452 5447 5441 5437 5433 5426 5420 5413 5406 5399 5392 5384 5376 5368 5360 5350 5339 5328 5314 5300 5291 5286 5285 5282 5277
5531 5527 5525 5521 5515 5506 5499 5492 5487 5483 5481 5477 5472 5468 5464 5459 5453 5447 5442 5438 5433 5428 5421 5415 5408 5402 5396 5389 5381 5372 5364 5357 5348 5337 5324 5310 5298 5291 5287 5284 5281 5277 5272
5525 5522 5518 5511 5499 5492 5487 5484 5482 5479 5474 5469 5465 5460 5454 5449 5443 5437 5433 5428 5421 5412 5406 5401 5394 5389 5382 5376 5367 5359 5352 5344 5333 5322 5306 5295 5287 5284 5283 5279 5276 5272 5266
5519 5516 5507 5497 5490 5486 5481 5477 5474 5472 5467 5462 5456 5451 5445 5439 5434 5429 5425 5414 5407 5400 5394 5387 5381 5375 5369 5362 5354 5346 5337 5328 5315 5301 5291 5284 5279 5279 5277 5274 5270 5265 5261